Regional Weather Roundup
Issued by NWS Wilmington, NC

Home | Current Version | Previous Version | Text Only | Print | Product List | Glossary On
Versions: 1 2 3 4 5 6 7 8 9 10 11 12 13 14 15 16 17 18 19 20 21 22 23 24 25 26 27 28 29 30 31 32 33 34 35 36 37 38 39 40 41 42 43 44 45 46 47 48 49 50
614
ASUS42 KILM 190213
RWRILM
RWRILM
REGIONAL HOURLY WEATHER ROUNDUP
NATIONAL WEATHER SERVICE WILMINGTON NC
1000 PM EDT WED OCT 18 2017

NOTE: "FAIR" INDICATES FEW OR NO CLOUDS BELOW 12,000 FEET WITH NO
SIGNIFICANT WEATHER AND/OR OBSTRUCTIONS TO VISIBILITY.

...............WFO WILMINGTON COUNTY WARNING AREA...............

......COASTAL NC AND SC COUNTIES......

CITY           SKY/WX    TMP DP  RH WIND       PRES   REMARKS
WILMINGTON     CLEAR     58  52  80 NE6       30.29S
N MYRTLE BEACH CLEAR     60  55  83 NE6       30.28R
MYRTLE BEACH   CLEAR     62  55  77 N8        30.29R

......INLAND NC AND SC COUNTIES.......

CITY           SKY/WX    TMP DP  RH WIND       PRES   REMARKS
LUMBERTON      CLEAR     49  48  97 NE8       30.30S
ELIZABETHTOWN  NOT AVBL
WHITEVILLE     CLEAR     59  52  76 CALM      30.29S
FLORENCE       CLEAR     55  48  77 NE5       30.31R
DARLINGTON     CLEAR     50  46  86 N5        30.32S
KINGSTREE      FAIR      54  52  94 CALM      30.30R
HARTSVILLE     FAIR      55  39  54 N6        30.31S
BENNETTSVILLE  FAIR      50  46  87 CALM      30.31S
CONWAY         FAIR      55  55 100 CALM      30.29S
GEORGETOWN     FAIR      59  57  94 N3        30.28S
MARION         FAIR     N/A N/A N/A NE3       30.30S

....................REST OF NORTH CAROLINA......................

.........EASTERN NC.........

CITY           SKY/WX    TMP DP  RH WIND       PRES   REMARKS
CAPE HATTERAS  CLEAR     66  61  84 NE6       30.29R
JACKSONVILLE   CLEAR     53  51  93 CALM      30.31R
MOREHEAD CITY  CLEAR     62  57  83 N9        30.28S
KENANSVILLE    CLEAR     50  48  93 CALM      30.32S
NEW BERN       CLEAR     60  57  89 NE6       30.32S
ELIZABETH CITY CLEAR     60  56  86 N6        30.34R

.........CENTRAL NC.........

CITY           SKY/WX    TMP DP  RH WIND       PRES   REMARKS
RALEIGH DURHAM PTCLDY    50  47  89 CALM      30.33F
ROCKY MOUNT    CLEAR     50  50 100 CALM      30.33S FOG
ROANOKE RAPIDS NOT AVBL
FAYETTEVILLE   CLEAR     54  48  80 N6        30.31S
HOFFMAN        CLEAR     46  43  90 CALM      30.32S

.........WESTERN NC.........

CITY           SKY/WX    TMP DP  RH WIND       PRES   REMARKS
CHARLOTTE      PTCLDY    58  41  53 CALM      30.33R
GREENSBORO     PTCLDY    51  43  74 CALM      30.32S
HICKORY        NOT AVBL
BOONE          NOT AVBL
ASHEVILLE      NOT AVBL

.....................REST OF SOUTH CAROLINA.....................

.........EASTERN SC.........

CITY           SKY/WX    TMP DP  RH WIND       PRES   REMARKS
CHARLESTON     CLEAR     61  57  87 N7        30.27R
BEAUFORT MCAS  CLEAR     63  59  87 NE7       30.27R
HILTON HEAD    CLEAR     68  61  77 NE13      30.26S

.........CENTRAL SC.........

CITY           SKY/WX    TMP DP  RH WIND       PRES   REMARKS
COLUMBIA       CLEAR     51  47  86 CALM      30.31R
ORANGEBURG     CLEAR     55  45  68 CALM      30.30R
SUMTER SHAW    CLEAR     56  42  60 NE6       30.28S

.........WESTERN SC.........

CITY           SKY/WX    TMP DP  RH WIND       PRES   REMARKS
GREENVILLE     NOT AVBL
ROCK HILL      CLEAR     47  44  90 CALM      30.33R
ANDERSON       CLEAR     52  46  80 CALM      30.32S
CLEMSON        NOT AVBL
GREENWOOD      CLEAR     48  45  89 CALM      30.33S


...................COASTAL AND OFFSHORE REPORTS..................

................LOCAL PIERS AND NC RESERVE................


STATION/POSITION TIME  SKY/WX   TEMP    WIND        PRES    VSBY
                                AIR SEA DIR/SP/G
                 (UTC)          (F)     (DEG/KT/KT) (MB)    (MI)
JOHNY MRCER PIER 0148            65 75   10/ 10/ 12 1024.4S
NC RESRV MASNBRO 0045            64      20/  1     1026.0
OCEAN CREST PIER NOT AVBL
SPRINGMAID  PIER 0148                               1024.5R


................COASTAL AND OFFSHORE BUOYS................


STATION/POSITION TIME  SKY/WX   TEMP    WIND        PRES    VSBY
                                AIR SEA DIR/SP/G
                 (UTC)          (F)     (DEG/KT/KT) (MB)    (MI)
DIMNDSHOAL 41025 0150            74 82   90/ 14/ 17 1024.7S
WVE H/P(F/S)=  6/ 9 SWL H/P/D(F/S/D)=  5/110/ 9

CAPE LOOKOUT     0200            65      10/ 13/ 16 1024.9F
ONSLOW BAY 41036 NOT AVBL
ONSLOW BAY 41064 0108            70      40/ 17/ 23 1024.3F
ONSLOW BAY 41159 NOT AVBL
MASNBO INL 41110 0159               74                N/A
WVE H/P(F/S)=  5/10 SWL H/P/D(F/S/D)=  2/110/11

WILM HARBR 41108 0200               75                N/A
WVE H/P(F/S)=  4/10 SWL H/P/D(F/S/D)=  2/140/11

27SE WRITB 41037 0108            71 77   60/ 17/ 23 1024.1F
FRYING PAN 41013 0200            72 76   30/ 19/ 25 1023.5
SUNST NRSH 41024 0108            67 74   50/ 10/ 14 1024.8F
CAPRS NRSH 41029 0108            68 75   40/ 14/ 17 1024.0R
EDISTO     41004 0200            74 80   40/ 21/ 27 1022.5


..........OFFSHORE BUOYS BEYOND 100 NM OFFSHORE...........
.....IN A TRIANGLE---HAT TO BERMUDA TO BAHAMAS TO HAT.....


STATION/POSITION TIME  SKY/WX   TEMP    WIND        PRES    VSBY
                                AIR SEA DIR/SP/G
                 (UTC)          (F)     (DEG/KT/KT) (MB)    (MI)
150E HAT   41001 NOT AVBL
W BERMUDA  41048 0200            77 79   70/ 14/ 17 1020.2
ATLANTIC S 41049 0150            79 81  200/ 10/ 12 1020.8R
WVE H/P(F/S)=  5/ 9 SWL H/P/D(F/S/D)=  5/140/ 9

E BAHAMAS  41046 0150            82 82  120/ 10/ 14 1018.4R
WVE H/P(F/S)=  5/ 9 SWL H/P/D(F/S/D)=  5/130/ 9

NE BAHAMAS 41047 0200            77 82  140/  8/ 10 1017.7
120E CANVRL41010 NOT AVBL

END




USA.gov is the U.S. government's official web portal to all federal, state and local government web resources and services.